[[{"header":{"parameterUnit":"m.s-1","parameterCategory":1,"la1":30.2991,"la2":30.254,"lo1":-89.0895,"lo2":-89.0444,"dy":0.0017,"dx":0.0017,"nx":28,"ny":28,"refTime":"2024-04-03T09:00:00:Z","depth":0,"parameterNumber":2,"parameterNumberName":"U-component_of_WINDS"},"data":[0,0,0,0,0,0,0,0,0,0,0,0,0,0,0,0,0,0,0,0,0,0,0,0,0,0,0,0,0,0,0,0,0,0,0,0,0,0,0,0,0,0,0,0,0,0,0,0,0,0,0,0,0,0,0,0,0,0,2.6529,2.653,0,2.6598,2.6599,2.6599,2.6511,2.6508,2.6505,2.6502,2.6575,2.658,2.6585,0,0,0,0,0,0,0,0,0,0,0,0,0,2.6325,2.6329,2.6529,2.653,2.6531,2.6598,2.6599,2.66,2.6512,2.6508,2.6504,2.6501,2.6573,2.6579,2.6585,0,0,0,0,0,0,0,0,0,0,0,0,0,2.6406,2.633,2.6529,2.6495,2.6493,2.6598,2.6599,2.66,2.6513,2.6508,2.6503,2.6499,2.6571,2.6579,2.6586,2.6728,0,0,2.6609,2.6612,0,0,0,0,0,0,0,0,2.6401,2.6413,2.6499,2.6497,2.6495,2.6541,2.6553,2.6643,2.6514,2.6505,2.6502,2.6496,2.6568,2.6575,2.6599,2.6732,2.6735,2.6609,2.6614,2.6617,2.6619,0,0,0,0,0,0,0,2.6396,2.641,2.6556,2.65,2.6498,2.6477,2.6484,2.657,2.6563,2.6506,2.6499,2.6509,2.6566,2.6592,2.66,2.6736,2.6609,2.6616,2.662,2.6623,2.6991,2.6996,0,0,0,0,0,0,2.6394,2.6406,2.6554,2.6558,2.6435,2.6485,2.6492,2.6531,2.6562,2.6562,2.6513,2.6504,2.6582,2.6591,2.6602,2.6772,2.6617,2.6624,2.6628,2.6986,2.6992,2.6998,0,0,0,0,0,0,2.639,2.6408,2.6551,2.648,2.6497,2.6494,2.6539,2.6535,2.6561,2.6567,2.6565,2.6541,2.6578,2.6592,2.6698,2.6773,2.6627,2.6634,2.6979,2.6988,2.6995,2.7112,0,0,0,0,0,0,2.6384,2.6407,2.646,2.6482,2.6501,2.6645,2.6543,2.654,2.6574,2.6563,2.6593,2.6593,2.6575,2.6687,2.6705,2.6781,2.664,2.6973,2.6983,2.6992,2.7102,2.7123,2.7142,0,0,0,0,0,2.6377,2.649,2.6463,2.6481,2.6567,2.665,2.666,2.6638,2.658,2.6634,2.6638,2.6592,2.6762,2.6699,2.6718,2.6797,2.6968,2.698,2.6992,2.7093,2.7119,2.7141,0,0,0,0,0,0,2.6477,2.6492,2.6462,2.6586,2.6617,2.6635,2.6702,2.6666,2.6715,2.6703,2.6673,2.6681,2.6794,2.6806,2.6735,2.6938,2.6855,2.6872,2.6926,2.6951,2.697,2.6966,2.6646,0,0,0,0,0,2.6514,2.6578,2.6588,2.6696,2.6714,2.6706,2.674,2.672,2.6751,2.6764,2.6776,2.6809,2.687,2.6911,2.6967,2.7103,2.7109,2.7167,2.7187,2.7203,2.7218,2.7293,2.7319,2.7037,2.7037,2.7037,0,0,2.659,2.6606,2.6649,2.6717,2.6739,2.6808,2.6717,2.6793,2.6845,2.6776,2.6877,2.6887,2.6922,2.7044,2.7099,2.7058,2.7298,2.7219,2.7232,2.7238,2.7308,2.7335,2.7359,2.7045,2.7044,2.7043,0,0,2.6763,2.6782,2.6874,2.6898,2.6932,2.6926,2.6949,2.6972,2.6976,2.7077,2.7028,2.7089,2.7194,2.7222,2.7249,2.7436,2.7396,2.7455,2.756,2.7633,2.7656,2.7675,2.7744,2.7768,2.747,2.747,2.747,0,2.6854,2.6955,2.6927,2.7007,2.704,2.6981,2.7075,2.71,2.7151,2.7176,2.7129,2.7261,2.728,2.7409,2.7455,2.7479,2.7505,2.7452,2.7654,2.7674,2.7692,2.7757,2.7782,2.7477,2.7476,2.7476,2.7475,0,2.7065,2.7136,2.7207,2.7258,2.7298,2.7386,2.7372,2.7417,2.7393,2.7393,2.7498,2.7519,2.7579,2.7608,2.7586,2.7735,2.7708,2.7659,2.7576,2.7726,2.7787,2.7811,2.7487,2.7485,2.7483,2.7481,0,0,2.7304,2.7339,2.7366,2.7389,2.7423,2.7478,2.7563,2.7622,2.7661,2.7699,2.7771,2.7862,2.7817,2.7849,2.7829,2.7893,2.8042,2.7836,2.7836,2.7875,2.8209,2.8247,2.8276,2.8015,2.802,2.8023,2.8207,0,2.7479,2.7626,2.7604,2.7747,2.7813,2.7758,2.7833,2.7863,2.7865,2.7923,2.7925,2.7991,2.7925,2.7944,2.8005,2.8011,2.8109,2.7997,2.8084,2.8087,2.8078,2.8308,2.8348,2.852,2.823,2.8234,2.8237,0,2.7703,2.7749,2.7898,2.7923,2.795,2.8017,2.807,2.8125,2.8159,2.8156,2.8193,2.8162,2.8249,2.8164,2.8285,2.821,2.8244,2.8252,2.8258,2.8266,2.8172,2.8323,2.8574,2.86,2.8273,2.8271,2.8268,0,2.7864,2.7963,2.8066,2.8087,2.8118,2.8167,2.8183,2.8211,2.8249,2.8295,2.832,2.8376,2.8408,2.8453,2.8439,2.8378,2.8564,2.8477,2.8565,2.8566,2.8607,2.8605,2.8868,2.8628,2.8627,2.8627,2.8626,0,2.8063,2.8157,2.8139,2.8202,2.8306,2.8281,2.8385,2.8394,2.842,2.8485,2.8441,2.8503,2.8481,2.8542,2.8532,2.8635,2.8649,2.865,2.8647,2.8655,2.8655,2.8678,2.8666,2.8633,2.8632,2.8631,2.8629,0,2.8261,2.8253,2.8361,2.8382,2.839,2.8466,2.8484,2.8544,2.8543,2.8626,2.8644,2.8643,2.8714,2.8704,2.8782,2.8776,2.8904,2.8885,2.8893,2.8889,2.8978,2.8971,2.9266,2.9305,2.9038,2.904,2.9042,0,2.8389,2.846,2.8489,2.8529,2.8548,2.8613,2.8651,2.863,2.8671,2.8715,2.8771,2.8837,2.8889,2.9004,2.9011,2.9071,2.9054,2.9154,2.9063,2.907,2.9058,2.9054,2.9062,2.9172,2.9175,2.9178,2.918,0,2.8618,2.861,2.8666,2.8722,2.8768,2.8811,2.8849,2.8885,2.8867,2.8916,2.8987,2.9027,2.9107,2.9175,2.9231,2.9249,2.9213,2.9208,2.9232,2.9242,2.9244,2.9246,2.8943,2.9202,2.9199,2.9198,2.9197,2.9196,2.8786,2.8847,2.8877,2.8941,2.8968,2.9005,2.9063,2.907,2.9128,2.9191,2.9175,2.9256,2.929,2.9362,2.9386,2.945,2.9413,2.9448,2.9456,2.9466,2.9477,2.9233,2.946,2.9459,2.9459,2.9458,2.9458,0,2.9013,2.903,2.909,2.9145,2.9196,2.9156,2.9197,2.9243,2.9315,2.9348,2.94,2.9483,2.9548,2.9561,2.9623,2.9672,2.9658,2.969,2.9687,2.9692,2.9505,2.9479,2.9701,2.9701,2.9701,2.9701,2.9701,2.9701,2.9138,2.924,2.9236,2.9352,2.9368,2.9447,2.9474,2.9509,2.9535,2.963,2.9683,2.9691,2.9717,2.9781,2.984,2.9842,2.9868,2.9907,2.9903,2.9729,2.9704,2.9681,2.9657,2.9912,2.9913,3.0084,3.0086,3.0087]},{"header":{"parameterUnit":"m.s-1","parameterCategory":1,"la1":30.2991,"la2":30.254,"lo1":-89.0895,"lo2":-89.0444,"dy":0.0017,"dx":0.0017,"nx":28,"ny":28,"refTime":"2024-04-03T09:00:00:Z","depth":0,"parameterNumber":3,"parameterNumberName":"V-component_of_WINDS"},"data":[0,0,0,0,0,0,0,0,0,0,0,0,0,0,0,0,0,0,0,0,0,0,0,0,0,0,0,0,0,0,0,0,0,0,0,0,0,0,0,0,0,0,0,0,0,0,0,0,0,0,0,0,0,0,0,0,0,0,-1.1712,-1.1713,0,-1.1814,-1.1815,-1.1816,-1.1907,-1.1908,-1.1909,-1.191,-1.2012,-1.2014,-1.2016,0,0,0,0,0,0,0,0,0,0,0,0,0,-1.1593,-1.1595,-1.1711,-1.1713,-1.1714,-1.1813,-1.1815,-1.1816,-1.1907,-1.1908,-1.1909,-1.1911,-1.2012,-1.2014,-1.2016,0,0,0,0,0,0,0,0,0,0,0,0,0,-1.1665,-1.1596,-1.1711,-1.1771,-1.1778,-1.1813,-1.1815,-1.1817,-1.1907,-1.1908,-1.191,-1.1911,-1.2011,-1.2014,-1.2016,-1.2,0,0,-1.2024,-1.2025,0,0,0,0,0,0,0,0,-1.1661,-1.1669,-1.1761,-1.1767,-1.1774,-1.1849,-1.1811,-1.1878,-1.1906,-1.1857,-1.191,-1.1912,-1.1957,-1.1964,-1.1979,-1.2005,-1.2009,-1.2024,-1.2026,-1.2027,-1.2028,0,0,0,0,0,0,0,-1.1656,-1.1665,-1.1752,-1.1762,-1.177,-1.1793,-1.1805,-1.1824,-1.1897,-1.1862,-1.1869,-1.188,-1.1961,-1.1977,-1.1982,-1.201,-1.2024,-1.2026,-1.2028,-1.2029,-1.2027,-1.2026,0,0,0,0,0,0,-1.1642,-1.166,-1.1749,-1.1755,-1.172,-1.1793,-1.1807,-1.1824,-1.1897,-1.191,-1.1878,-1.1884,-1.1971,-1.1979,-1.1986,-1.1971,-1.2027,-1.2029,-1.2031,-1.2029,-1.2027,-1.2025,0,0,0,0,0,0,-1.1639,-1.1649,-1.1744,-1.171,-1.1724,-1.1794,-1.1812,-1.1825,-1.1841,-1.1909,-1.1922,-1.1881,-1.1973,-1.1983,-1.1996,-1.1976,-1.2031,-1.2033,-1.2031,-1.2028,-1.2026,-1.194,0,0,0,0,0,0,-1.1635,-1.1647,-1.1642,-1.1709,-1.1725,-1.1752,-1.1811,-1.1826,-1.1845,-1.1853,-1.1916,-1.1927,-1.1975,-1.1991,-1.1998,-1.198,-1.2035,-1.2033,-1.2029,-1.2027,-1.1945,-1.1935,-1.1927,0,0,0,0,0,-1.163,-1.1613,-1.1641,-1.1651,-1.172,-1.1751,-1.176,-1.1816,-1.1843,-1.1838,-1.1882,-1.1925,-1.1978,-1.1992,-1.2001,-1.1983,-1.2034,-1.203,-1.2027,-1.1949,-1.1937,-1.1927,0,0,0,0,0,0,-1.1541,-1.1623,-1.1655,-1.1659,-1.1697,-1.1766,-1.1761,-1.1802,-1.1832,-1.1838,-1.1906,-1.1919,-1.1924,-1.1956,-1.197,-1.1971,-1.2012,-1.201,-1.195,-1.1939,-1.193,-1.1921,-1.2037,0,0,0,0,0,-1.1522,-1.1541,-1.1612,-1.1608,-1.1626,-1.169,-1.1706,-1.1746,-1.1788,-1.1804,-1.185,-1.1888,-1.1914,-1.1929,-1.1956,-1.1951,-1.1966,-1.1944,-1.1934,-1.1927,-1.1923,-1.1922,-1.1913,-1.2013,-1.2013,-1.2013,0,0,-1.1482,-1.1529,-1.1537,-1.1591,-1.1626,-1.1643,-1.1703,-1.1719,-1.1732,-1.1807,-1.1821,-1.1856,-1.1904,-1.1908,-1.1912,-1.1934,-1.1899,-1.1922,-1.1915,-1.1916,-1.1918,-1.1908,-1.1899,-1.2011,-1.2011,-1.2012,0,0,-1.1418,-1.1456,-1.1457,-1.1491,-1.1543,-1.1586,-1.1586,-1.165,-1.1676,-1.1692,-1.1748,-1.1765,-1.1807,-1.1839,-1.186,-1.181,-1.185,-1.1817,-1.1768,-1.1766,-1.1758,-1.1751,-1.1732,-1.1724,-1.1814,-1.1814,-1.1813,0,-1.1361,-1.139,-1.1453,-1.1465,-1.1487,-1.1557,-1.1558,-1.1588,-1.1645,-1.1658,-1.1683,-1.1737,-1.1775,-1.1786,-1.1774,-1.179,-1.1791,-1.1809,-1.1755,-1.1748,-1.1743,-1.1725,-1.1717,-1.1809,-1.181,-1.181,-1.181,0,-1.1318,-1.1337,-1.1332,-1.1386,-1.1408,-1.1414,-1.1477,-1.1492,-1.153,-1.157,-1.1586,-1.1634,-1.1671,-1.1678,-1.1715,-1.1695,-1.1707,-1.1742,-1.1784,-1.1728,-1.1712,-1.1705,-1.1803,-1.1804,-1.1806,-1.1807,0,0,-1.1197,-1.1288,-1.1284,-1.131,-1.1373,-1.1388,-1.1399,-1.1436,-1.1447,-1.1485,-1.1494,-1.1529,-1.1562,-1.1586,-1.1628,-1.1627,-1.1582,-1.1663,-1.1665,-1.1644,-1.1561,-1.1532,-1.1523,-1.1611,-1.161,-1.1609,-1.1556,0,-1.1142,-1.1164,-1.1221,-1.1225,-1.1243,-1.131,-1.1319,-1.1358,-1.1397,-1.1417,-1.146,-1.1483,-1.1526,-1.1541,-1.1543,-1.1587,-1.1566,-1.1592,-1.1618,-1.1618,-1.1601,-1.1515,-1.1485,-1.1433,-1.1551,-1.155,-1.1549,0,-1.1079,-1.1113,-1.1119,-1.1182,-1.1192,-1.1198,-1.1237,-1.1257,-1.1303,-1.1331,-1.1358,-1.1406,-1.1419,-1.146,-1.1479,-1.1495,-1.151,-1.1533,-1.1533,-1.1535,-1.1578,-1.1513,-1.1418,-1.1408,-1.154,-1.1541,-1.1542,0,-1.0988,-1.1036,-1.1046,-1.1066,-1.1139,-1.1142,-1.1173,-1.1221,-1.124,-1.1274,-1.1287,-1.1322,-1.1341,-1.1367,-1.1422,-1.1447,-1.1435,-1.148,-1.1457,-1.1455,-1.1449,-1.1448,-1.1352,-1.1462,-1.1462,-1.1462,-1.1463,0,-1.0919,-1.0919,-1.1006,-1.1011,-1.1014,-1.108,-1.108,-1.1117,-1.1159,-1.1173,-1.1234,-1.1245,-1.1319,-1.1339,-1.1382,-1.139,-1.1399,-1.1421,-1.1432,-1.1414,-1.1411,-1.1422,-1.1426,-1.146,-1.1461,-1.1461,-1.1462,0,-1.0816,-1.0874,-1.0889,-1.0958,-1.0975,-1.0974,-1.1033,-1.104,-1.1084,-1.11,-1.1107,-1.1174,-1.1201,-1.1259,-1.1301,-1.1331,-1.1327,-1.1349,-1.1311,-1.1318,-1.129,-1.1291,-1.1196,-1.1186,-1.1305,-1.1303,-1.1302,0,-1.0766,-1.0768,-1.0838,-1.0851,-1.088,-1.0901,-1.0921,-1.0987,-1.1005,-1.1058,-1.1059,-1.1091,-1.1119,-1.1158,-1.121,-1.1242,-1.1264,-1.1228,-1.1269,-1.125,-1.126,-1.1258,-1.1258,-1.1218,-1.1216,-1.1215,-1.1214,0,-1.0671,-1.07,-1.0727,-1.0764,-1.0786,-1.0818,-1.0853,-1.0861,-1.0935,-1.0952,-1.098,-1.1002,-1.1046,-1.1076,-1.1116,-1.1148,-1.1192,-1.1202,-1.1198,-1.1177,-1.1154,-1.1164,-1.1284,-1.1203,-1.1204,-1.1205,-1.1205,-1.1206,-1.0592,-1.0596,-1.0646,-1.0674,-1.0708,-1.0739,-1.075,-1.0795,-1.0819,-1.086,-1.0898,-1.0922,-1.0968,-1.1028,-1.1056,-1.1076,-1.1098,-1.1093,-1.1091,-1.1088,-1.1079,-1.1154,-1.1084,-1.1084,-1.1084,-1.1085,-1.1085,0,-1.0498,-1.0534,-1.0559,-1.0606,-1.0628,-1.0671,-1.0712,-1.0727,-1.0747,-1.0788,-1.0815,-1.0847,-1.0876,-1.0931,-1.0966,-1.097,-1.0992,-1.0977,-1.0976,-1.0982,-1.1058,-1.1057,-1.0959,-1.0959,-1.0959,-1.0959,-1.0959,-1.0959,-1.0451,-1.0461,-1.0496,-1.0523,-1.0559,-1.0583,-1.0603,-1.0632,-1.0665,-1.0698,-1.0723,-1.0759,-1.0805,-1.0844,-1.0872,-1.0888,-1.0896,-1.0874,-1.0896,-1.0965,-1.0977,-1.0988,-1.0987,-1.0876,-1.0876,-1.0818,-1.0818,-1.0817]}]]